Hourly Data Report for September 02, 2017

All times are specified in Local Standard Time (LST). Add 1 hour to adjust for Daylight Saving Time where and when it is observed.

BAS CARAQUET
NEW BRUNSWICK

47°48'08.000" N
64°50'00.000" W
5.00 m
8100467
71598
WXS

Download Data

Hourly Data (September 2017)
Hourly Data Report for September 2, 2017
Temp Definition
°C
Dew Point Temp Definition
°C
Rel Hum Definition
%
Wind Dir Definition
10's deg

Wind Spd Definition
km/h
Visibility Definition
km
Stn Press Definition
kPa
Hmdx Definition


Wind Chill Definition


Weather Definition


TIME
00:00 10.3 6.6 77 31 25   100.89     LegendNANA
01:00 10.2 6.2 76 31 21   100.94     LegendNANA
02:00 10.3 6.0 75 31 27   101.01     LegendNANA
03:00 9.8 5.4 74 30 23   101.09     LegendNANA
04:00 9.7 5.9 77 31 23   101.15     LegendNANA
05:00 9.8 5.4 74 30 22   101.22     LegendNANA
06:00 9.9 5.3 73 30 20   101.28     LegendNANA
07:00 10.2 5.3 71 31 19   101.39     LegendNANA
08:00 10.7 5.5 70 30 20   101.46     LegendNANA
09:00 11.1 6.0 71 29 22   101.55     LegendNANA
10:00 11.7 6.1 68 29 21   101.59     LegendNANA
11:00 14.8 8.0 64 29 18   101.60     LegendNANA
12:00 15.9 8.3 61 29 21   101.60     LegendNANA
13:00 16.7 7.8 56 28 17   101.62     LegendNANA
14:00 17.2 8.1 55 28 22   101.63     LegendNANA
15:00 18.1 8.8 55 28 19   101.65     LegendNANA
16:00 18.5 9.1 54 28 16   101.70     LegendNANA
17:00 18.4 7.8 50 28 12   101.76     LegendNANA
18:00 17.1 7.8 54 28 8   101.84     LegendNANA
19:00 13.2 9.2 77 14 8   101.94     LegendNANA
20:00 11.4 8.8 84 15 8   102.03     LegendNANA
21:00 10.6 8.7 88 16 9   102.09     LegendNANA
22:00 10.3 8.6 89 15 6   102.15     LegendNANA
23:00 10.0 8.8 92 16 7   102.16     LegendNANA

Notes on Data Quality.

Legend

  • E = Estimated
  • M = Missing
  • NA = Not Available
  • ‡ = Partner data that is not subject to review by the National Climate Archives
Date modified: